This demonstration page uses our WeatherBlox Daily Observations layout. Learn more.

Left ArrowRight Arrow

36.19886, -115.1175

Hourly Observations for August 31, 2021

Temp ( °F °C ) Dew Point ( °F °C ) Humidity (%) Winds ( mph kmh ) Pressure ( in mb ) Visibility ( mi km ) Precip ( " mm )
12:53 am 00:53 Clear 90 32.2 52 11.1 27 27 SSE 8 13 29.69 1005 10 16 0.00 0.00
1:53 am 01:53 Clear 87 30.6 53 11.7 31 31 E 5 7 29.70 1006 10 16 0.00 0.00
2:53 am 02:53 Clear 88 31.1 54 12.2 31 31 E 5 7 29.70 1006 10 16 0.00 0.00
3:53 am 03:53 Clear 87 30.6 54 12.2 32 32 E 5 7 29.70 1006 10 16 0.00 0.00
4:53 am 04:53 Clear 87 30.6 55 12.8 34 34 E 8 13 29.69 1006 10 16 0.00 0.00
5:53 am 05:53 Mostly Clear 87 30.6 55 12.8 34 34 ESE 6 9 29.70 1006 10 16 0.00 0.00
6:53 am 06:53 Sunny 87 30.6 55 12.8 34 34 NNE 6 9 29.71 1006 10 16 0.00 0.00
7:53 am 07:53 Sunny 87 30.6 58 14.4 37 37 ENE 6 9 29.71 1006 10 16 0.00 0.00
8:53 am 08:53 Sunny 90 32.2 56 13.3 32 32 ESE 7 11 29.72 1006 10 16 0.00 0.00
9:53 am 09:53 Sunny 92 33.3 56 13.3 30 30 SE 12 19 29.73 1007 10 16 0.00 0.00
10:53 am 10:53 Sunny 93 33.9 56 13.3 29 29 E 12 19 29.72 1006 10 16 0.00 0.00
11:53 am 11:53 Sunny 95 35 55 12.8 26 26 SSE 9 15 29.70 1006 10 16 0.00 0.00
12:53 pm 12:53 Sunny 97 36.1 54 12.2 24 24 ESE 6 9 29.66 1005 10 16 0.00 0.00
1:53 pm 13:53 Sunny 99 37.2 54 12.2 22 22 E 12 19 29.63 1003 10 16 0.00 0.00
2:53 pm 14:53 Partly Cloudy 99 37.2 54 12.2 22 22 ESE 12 19 29.60 1003 10 16 0.00 0.00
3:53 pm 15:53 Mostly Sunny 99 37.2 58 14.4 26 26 SE 23 37 29.59 1002 10 16 0.00 0.00
4:53 pm 16:53 Mostly Sunny 92 33.3 59 15 33 33 S 25 41 29.61 1003 10 16 0.00 0.00
5:53 pm 17:53 Mostly Cloudy 89 31.7 59 15 36 36 SSW 10 17 29.62 1003 10 16 0.00 0.00
6:53 pm 18:53 Sunny 92 33.3 56 13.3 30 30 SSW 7 11 29.60 1002 10 16 0.00 0.00
7:53 pm 19:53 Clear 90 32.2 58 14.4 34 34 ESE 10 17 29.62 1003 10 16 0.00 0.00
8:53 pm 20:53 Mostly Cloudy with Light Rain 87 30.6 60 15.6 40 40 SE 12 19 29.65 1004 10 16 0.00 0.00
9:53 pm 21:53 Partly Cloudy 88 31.1 57 13.9 35 35 S 8 13 29.65 1004 10 16 0.00 0.00
10:53 pm 22:53 Mostly Clear 85 29.4 61 16.1 45 45 ENE 8 13 29.66 1004 10 16 0.00 0.00
11:53 pm 23:53 Mostly Cloudy 84 28.9 64 17.8 51 51 E 12 19 29.67 1005 10 16 0.00 0.00

Powered by AerisWeather